Theta_e
323 313 310 309 298 296 293 297 300 303 304 308 311 314 312 314 310 302 328 334 337 338 341 343 345 346 346 346 347 348 349 349 347 346 344 341 340 340 340 339 338 338 338 338 338 340 341 339 339
317 314 310 304 294 288 293 298 301 303 308 311 314 312 313 310 320 324 324 334 337 339 340 340 342 345 345 346 348 348 348 349 346 345 343 341 340 339 338 338 337 337 337 338 339 340 339 338 339
311 312 305 299 292 290 294 299 303 305 307 307 310 316 315 314 323 324 329 333 335 336 340 339 341 343 344 346 347 348 347 347 347 345 343 341 339 338 337 337 337 336 337 338 339 339 338 337 337
307 308 305 297 293 296 297 302 305 306 306 310 313 311 317 323 323 327 329 332 333 336 338 339 342 343 344 345 346 346 346 346 346 343 342 340 339 337 336 336 336 335 335 337 337 337 336 336 335
307 304 298 297 297 295 300 305 306 305 305 306 310 308 313 323 327 326 329 332 332 334 337 338 341 342 343 344 344 345 345 345 344 342 340 340 338 337 336 336 335 334 334 335 335 334 334 334 333
302 302 295 293 298 296 300 306 306 304 305 310 312 312 314 323 325 325 329 329 334 335 336 336 334 337 339 342 343 343 344 344 343 341 339 339 338 336 335 335 335 334 333 334 333 332 332 332 331
299 298 294 294 297 296 300 306 304 304 305 305 315 311 315 320 323 325 328 331 334 336 334 333 333 333 333 336 339 340 341 341 342 341 339 338 337 337 336 335 334 333 332 331 330 329 328 328 328
301 302 295 295 296 299 299 304 306 306 305 309 318 311 315 322 323 325 328 329 332 332 332 330 330 331 331 332 332 334 336 337 337 336 333 331 331 332 332 330 333 332 331 330 328 327 327 327 328
311 298 294 296 299 301 301 301 302 305 307 310 314 317 320 325 323 324 324 326 328 330 330 329 328 328 329 330 327 328 330 330 329 328 326 323 324 325 325 326 330 331 331 329 328 327 326 325 323
310 297 298 302 304 301 302 301 303 304 305 307 313 320 325 324 322 322 322 322 323 325 326 328 327 327 328 332 327 327 326 325 324 323 323 324 323 323 324 322 326 328 327 329 327 326 326 322 317
303 302 305 306 308 307 302 300 303 303 301 308 312 318 323 322 321 322 323 324 323 325 327 328 327 326 327 328 325 324 324 322 322 322 323 323 322 320 319 318 318 316 318 318 319 319 318 317 317
299 301 305 309 311 306 301 303 301 303 304 309 319 323 323 321 320 320 323 324 323 324 326 327 327 326 325 327 326 324 323 322 321 321 323 321 319 318 318 317 316 315 316 316 316 316 317 317 317
302 303 304 306 305 309 303 301 301 301 304 308 323 324 323 323 322 322 323 327 326 325 326 327 326 325 325 325 326 325 323 323 322 322 322 321 319 318 318 317 317 317 315 315 315 315 316 315 316
305 304 304 306 306 305 301 301 301 303 303 314 321 320 323 323 323 322 322 325 325 326 326 327 327 326 325 324 325 326 325 325 322 322 322 322 321 319 319 318 317 316 315 314 314 315 314 314 314
305 303 305 308 308 303 301 297 296 302 301 310 319 319 320 323 324 323 323 323 326 326 327 327 327 328 326 325 325 326 325 325 322 322 323 322 322 320 319 318 317 317 315 313 312 313 312 312 313
299 301 299 308 309 306 301 294 301 303 299 301 315 318 319 320 322 325 325 324 326 326 326 328 329 328 327 326 326 325 325 324 323 322 322 322 322 321 319 318 318 319 317 314 313 313 313 313 313
297 292 295 301 308 305 297 294 301 307 299 299 301 311 317 318 320 323 325 324 324 324 326 326 328 327 327 326 325 325 324 323 323 323 323 323 323 323 320 319 319 319 317 316 315 314 314 315 319
292 293 296 298 302 303 297 294 298 302 302 301 300 302 311 316 319 322 324 325 322 323 324 326 327 327 327 327 325 324 323 323 323 323 324 324 324 323 321 320 319 319 316 316 314 314 318 319 317
297 296 297 299 304 301 301 298 297 299 296 296 297 298 304 312 318 321 323 324 322 322 322 324 325 326 327 326 324 323 322 323 321 323 325 325 325 324 322 321 319 318 317 317 316 315 317 316 317
297 295 294 298 303 300 300 298 302 302 299 300 298 298 300 306 312 316 319 321 322 322 322 323 325 325 326 327 326 326 325 323 325 325 325 325 324 325 324 322 319 317 316 315 315 314 314 316 316
295 294 295 295 295 299 296 296 299 301 299 300 301 299 301 304 307 311 316 318 322 322 322 322 324 325 326 326 327 321 322 320 320 322 324 324 325 324 324 322 321 319 318 317 314 313 312 310 312
291 296 297 296 294 288 297 289 297 301 301 297 299 298 299 302 305 310 314 316 319 322 324 324 323 323 325 325 324 324 322 321 323 324 324 323 323 323 324 323 322 321 319 317 315 314 314 314 314
293 298 297 297 291 289 291 285 288 297 295 298 298 299 301 300 302 308 312 316 318 321 323 325 324 323 324 324 324 324 323 324 322 321 321 322 322 324 324 324 322 322 320 319 317 314 315 317 317
299 294 292 291 289 282 288 289 288 293 295 299 299 299 301 300 300 306 312 316 317 320 321 323 323 324 324 324 324 324 323 323 320 319 321 321 322 322 323 324 325 325 324 322 319 320 319 317 316
298 292 284 281 280 282 288 286 291 295 294 297 299 299 301 301 300 302 307 312 314 315 317 320 322 323 325 325 325 325 325 324 321 321 321 318 320 320 323 326 325 325 325 324 323 322 321 319 318
294 293 285 279 277 279 283 283 290 298 302 301 298 298 299 299 300 299 306 311 313 315 317 319 320 322 323 325 326 326 326 326 324 323 322 323 323 324 326 327 327 327 326 325 324 323 322 321 318
292 289 294 285 276 277 279 284 289 291 291 294 296 293 295 297 298 299 302 309 313 314 316 318 319 321 321 323 325 325 325 325 324 322 324 324 326 325 326 327 326 326 325 325 324 322 321 319 317
292 294 286 287 279 278 280 280 286 287 293 294 292 294 293 295 296 295 298 307 310 312 315 317 319 319 319 321 322 322 324 324 323 323 324 322 323 323 322 322 323 323 322 321 320 319 317 316 313
289 288 289 288 285 283 276 282 286 292 293 294 297 296 295 294 294 295 294 296 300 301 305 311 311 311 309 314 314 314 314 314 314 315 317 318 316 317 317 316 317 315 314 313 314 313 313 312 309
294 291 290 285 280 281 280 284 287 286 287 288 291 291 291 293 293 293 294 295 297 298 299 302 302 305 306 308 310 311 310 309 308 307 307 308 304 305 306 310 310 308 307 308 309 308 307 307 305
Wind_Speed
9 7 2 5 6 6 1 2 0 3 4 3 3 10 8 3 2 3 1 9 12 8 6 7 9 11 11 11 11 12 14 16 16 17 17 17 18 18 18 18 18 17 17 17 17 18 19 17 17
7 4 5 3 6 3 4 1 3 1 6 8 9 4 6 2 3 8 5 8 11 9 7 6 9 10 12 12 11 10 13 14 17 17 17 16 17 17 17 17 17 17 16 16 17 18 17 17 17
6 3 4 5 3 2 4 4 5 1 2 2 5 6 4 2 5 7 10 10 8 8 7 7 9 10 13 13 14 13 13 13 16 18 17 17 16 16 17 17 17 16 15 16 16 16 16 17 17
5 5 5 5 1 2 5 7 5 6 2 7 6 7 3 3 6 8 11 11 11 7 7 8 10 12 13 13 13 14 13 14 16 16 16 16 16 16 15 16 16 15 14 16 15 13 14 16 16
4 3 4 2 3 3 1 7 6 6 5 4 3 4 2 2 11 14 13 11 12 9 7 6 10 11 12 12 13 13 14 15 16 15 15 15 15 15 15 14 14 15 15 14 13 12 12 14 16
4 3 4 1 3 0 1 5 7 4 5 4 6 6 2 3 15 12 12 10 9 11 7 7 9 9 11 12 12 12 13 13 15 15 14 14 14 15 13 13 14 14 14 13 12 11 11 11 14
5 4 2 1 2 1 5 6 6 6 7 4 10 5 2 3 8 13 12 10 9 9 7 6 6 7 9 9 10 12 11 12 12 13 13 12 12 13 11 10 12 12 12 12 11 10 9 9 10
4 4 1 1 2 4 3 6 6 7 5 5 5 7 6 8 9 11 11 10 10 7 6 6 6 5 6 6 10 10 11 10 10 11 11 9 10 11 11 8 9 10 10 10 9 8 8 8 9
1 3 3 4 5 3 1 4 0 2 6 3 2 7 7 16 12 12 9 7 7 6 7 6 6 5 5 6 6 8 9 9 9 9 10 7 4 5 7 6 7 8 7 7 7 6 6 6 8
1 3 8 4 2 2 4 3 5 5 5 2 2 3 16 17 16 16 14 12 10 10 8 7 6 6 6 6 5 5 5 5 5 5 6 4 5 4 5 6 7 6 5 4 4 3 2 3 1
2 5 2 4 0 3 3 4 4 8 4 8 9 11 18 15 15 16 13 15 13 12 9 9 9 7 6 5 4 2 3 3 3 5 5 5 4 4 2 2 2 2 2 0 2 1 1 2 1
4 4 5 6 2 5 6 2 3 7 8 7 13 21 19 17 17 17 16 15 12 13 13 11 11 9 7 5 5 5 4 3 4 5 5 4 3 4 4 3 3 3 2 2 2 1 1 2 1
6 1 8 9 10 8 8 9 6 8 6 6 12 16 21 19 17 13 12 12 13 14 13 13 11 11 9 9 6 5 5 4 5 5 6 4 4 4 4 4 4 3 3 3 3 2 2 1 1
6 4 10 9 11 10 6 7 7 8 5 8 14 16 17 20 20 12 12 15 15 15 14 12 12 12 10 8 9 7 6 6 4 4 5 6 5 4 4 4 4 4 4 3 3 3 3 3 2
6 3 2 11 9 6 2 6 9 7 4 10 14 14 14 19 15 19 20 17 19 16 15 13 12 12 11 10 9 7 6 6 6 5 6 6 5 6 6 4 4 4 4 4 2 2 1 1 2
5 2 6 6 12 9 7 12 6 8 6 10 13 13 14 15 20 20 15 16 16 15 16 16 12 10 11 10 8 5 6 5 6 5 5 7 6 6 5 4 4 5 4 3 2 2 1 2 2
3 5 5 7 9 8 9 6 10 10 9 11 11 13 14 14 13 15 15 16 16 17 16 15 14 12 11 8 6 6 6 5 4 4 5 7 7 7 6 5 4 5 4 4 3 3 3 3 3
6 4 5 8 6 13 13 12 11 9 11 17 15 14 15 15 21 17 19 16 12 15 14 14 13 14 12 7 5 3 4 3 4 5 7 9 7 7 6 5 6 5 4 4 3 5 4 3 3
4 1 5 7 8 5 16 18 17 17 8 9 9 13 16 17 20 16 17 17 13 13 15 16 15 14 11 10 8 6 7 6 4 6 8 8 8 9 8 5 5 5 6 7 5 3 4 4 3
6 7 7 6 9 2 10 17 20 19 17 16 16 14 16 19 17 15 15 17 17 19 18 17 17 16 13 11 9 6 7 5 8 7 8 9 9 10 9 7 6 6 4 5 5 4 2 3 4
8 10 7 6 5 1 6 18 20 19 16 19 19 11 16 21 21 15 18 19 19 19 19 19 19 18 16 13 8 3 3 0 4 6 8 9 9 8 8 8 6 7 5 5 5 5 6 3 2
14 10 5 3 3 5 8 13 19 19 25 22 21 16 18 19 16 16 19 19 19 20 19 19 18 18 16 16 13 15 10 10 9 8 7 6 8 8 8 9 8 7 6 6 6 5 6 4 7
9 8 10 9 5 3 5 9 7 12 16 22 21 24 23 16 17 20 20 21 20 19 19 18 17 17 17 16 15 13 12 10 4 4 7 8 6 9 9 9 9 9 7 8 8 6 8 7 6
9 6 6 4 4 6 13 12 10 14 13 17 19 22 24 20 17 17 17 18 18 15 15 16 17 17 17 17 17 17 18 13 7 7 8 6 6 6 9 10 10 10 9 10 9 10 9 9 8
14 9 4 4 5 11 10 11 30 8 6 11 19 22 22 19 15 16 16 16 14 15 17 15 18 18 17 18 18 18 17 15 12 11 8 7 6 5 8 11 9 8 10 10 10 9 10 10 10
20 18 7 9 7 3 3 13 11 15 21 19 14 10 13 15 17 17 19 18 18 19 19 18 18 17 17 18 19 16 15 11 11 11 8 8 7 7 8 9 10 10 9 9 9 7 7 7 8
9 14 7 3 2 2 7 10 11 8 10 10 15 8 12 15 16 17 15 17 17 16 18 19 18 17 16 17 15 15 14 14 12 10 10 8 8 6 7 7 7 7 7 8 6 5 6 6 4
5 10 5 4 8 9 7 7 14 4 15 16 12 17 11 11 13 10 14 16 14 14 15 15 16 18 15 15 13 12 12 12 10 10 10 7 5 6 6 6 5 5 5 5 5 4 4 5 2
8 7 5 3 4 9 3 10 8 16 16 17 20 18 14 11 13 11 10 9 10 8 11 13 11 12 9 11 9 9 8 7 7 7 6 7 6 5 5 5 5 5 4 3 3 3 3 5 5
14 11 12 7 7 6 1 14 7 8 4 9 13 6 6 7 7 8 8 9 10 10 9 12 9 10 10 8 8 9 8 7 7 6 6 5 7 6 6 5 5 4 5 3 3 4 4 5 6
Wind_Direction
321 318 79 43 53 60 359 341 93 112 51 323 67 100 117 47 84 194 357 129 131 125 122 110 110 117 109 113 114 119 122 113 109 106 100 98 96 95 94 91 87 85 85 87 88 90 81 70 67
317 334 38 80 80 56 276 330 107 150 144 125 96 88 52 72 78 119 98 150 124 122 115 107 112 122 115 109 114 126 118 119 118 113 107 103 98 95 92 87 84 82 85 88 93 87 79 68 68
313 38 73 85 109 150 183 175 166 171 141 106 88 56 101 98 103 150 131 134 117 108 109 118 119 122 119 111 107 108 121 118 114 116 109 103 101 97 93 88 84 81 85 87 91 83 76 72 71
350 6 34 81 262 242 195 174 190 133 20 70 116 76 52 200 143 141 132 128 117 113 114 126 126 121 120 113 108 107 112 121 113 112 111 109 107 103 96 94 88 84 87 89 86 76 70 69 67
36 42 52 66 280 301 138 169 168 136 152 101 124 131 56 17 118 119 130 128 129 129 129 134 129 125 125 121 118 112 110 113 110 112 113 115 114 109 105 99 94 91 96 92 88 80 70 67 66
33 82 50 221 301 29 288 196 152 145 143 154 81 103 154 118 128 137 132 129 136 137 137 142 136 133 128 129 122 123 122 118 120 121 120 120 116 113 110 108 103 98 98 97 91 85 76 69 66
104 83 218 191 291 348 193 161 163 162 148 176 145 81 100 175 141 139 131 128 134 138 135 133 136 133 130 130 123 127 125 127 128 127 119 114 105 108 102 95 104 101 98 96 92 88 86 79 68
105 96 255 232 168 271 242 184 139 150 208 89 141 150 176 197 148 130 129 134 139 140 139 141 141 138 133 130 121 120 121 120 119 116 120 117 111 108 104 92 102 107 104 104 100 90 80 66 46
272 100 218 228 162 259 218 191 200 124 111 54 61 155 185 154 134 130 134 132 145 155 160 155 152 148 133 129 135 126 129 128 129 131 131 110 116 118 114 119 110 119 123 122 113 95 67 45 23
104 164 207 226 154 340 271 219 171 124 137 50 31 8 142 149 151 154 162 162 170 170 179 170 166 165 153 145 145 141 145 150 151 146 144 134 141 143 132 139 137 134 132 138 136 123 83 63 67
59 217 247 243 203 354 299 289 197 127 249 189 181 152 152 162 163 165 172 173 177 174 178 180 176 169 165 152 155 156 153 157 160 162 159 151 137 140 148 143 144 151 155 78 28 45 102 128 121
120 279 277 282 291 357 308 275 228 185 218 183 167 163 159 170 178 175 179 174 175 176 182 184 180 175 177 155 172 169 169 183 173 177 173 153 155 165 175 182 187 187 198 204 205 218 191 151 136
144 258 313 342 314 268 261 250 232 233 241 113 142 166 172 178 184 189 178 183 176 182 183 186 181 179 181 172 180 175 182 186 194 177 175 167 166 178 173 192 192 203 189 191 199 209 211 222 242
174 154 282 311 304 299 216 250 143 260 152 136 157 182 183 183 188 180 182 184 189 188 182 176 183 183 180 180 182 185 187 189 186 188 184 184 174 179 187 201 204 203 202 199 191 193 199 229 240
107 124 279 264 262 298 300 267 219 236 151 165 185 192 196 202 183 195 193 186 188 192 186 184 182 179 182 187 185 186 187 181 184 194 194 187 193 186 183 186 196 206 199 186 172 184 228 259 260
95 90 239 236 217 242 200 265 254 234 162 209 203 200 202 204 202 206 197 198 193 189 194 191 183 181 182 191 185 176 182 189 188 183 188 194 198 195 189 187 201 201 184 176 175 182 227 262 273
256 172 198 266 199 228 198 253 246 231 197 229 209 211 208 212 214 213 205 201 192 191 193 193 191 182 183 185 172 181 183 191 191 177 190 197 199 198 190 194 204 188 184 190 190 204 188 217 237
172 174 189 220 211 209 241 248 264 257 217 223 219 212 211 211 216 204 204 202 189 193 188 189 193 194 183 178 169 167 178 202 185 199 194 199 200 200 188 201 198 180 176 196 190 204 216 222 228
66 162 222 192 250 194 245 248 248 252 238 243 233 221 214 213 220 207 203 200 188 185 187 190 187 192 187 189 188 200 206 202 205 208 204 199 200 203 202 203 192 183 189 202 193 174 220 245 211
269 245 244 287 285 175 258 261 260 247 243 240 240 225 219 217 216 206 197 198 194 192 191 188 190 189 191 193 195 200 192 208 213 212 214 208 205 205 206 195 197 185 190 201 189 179 204 248 188
223 228 229 228 15 1 325 265 258 257 246 245 247 228 227 217 213 201 198 197 198 194 190 190 190 188 192 186 177 142 151 130 187 214 219 217 211 210 203 199 189 195 190 201 200 187 191 235 249
225 179 195 258 184 234 156 287 241 243 241 236 238 228 228 223 216 206 200 200 198 200 193 190 189 189 189 181 179 192 197 202 213 210 207 207 201 205 199 199 198 196 192 203 206 193 206 180 240
240 156 194 188 141 47 211 263 278 200 235 238 232 227 231 218 206 208 205 200 199 194 194 190 186 186 188 186 187 192 204 213 196 180 182 202 200 202 200 201 195 199 194 208 195 191 210 207 234
155 107 71 55 108 236 210 214 222 234 229 237 230 232 226 217 212 214 205 200 198 193 189 187 184 188 187 187 194 198 208 208 189 186 198 199 202 203 206 203 201 204 204 203 204 217 209 213 220
192 152 196 212 189 236 181 194 254 243 235 243 230 223 223 217 206 206 195 199 194 185 188 186 186 190 188 190 198 203 208 206 200 196 194 180 199 197 206 203 198 200 204 209 213 219 215 212 217
195 193 201 201 195 223 158 226 259 221 241 242 239 247 235 214 205 199 200 195 193 193 192 190 190 194 190 194 202 205 204 205 205 200 192 201 200 203 205 206 198 202 205 216 212 217 220 216 217
178 213 248 62 77 74 222 274 280 236 265 269 239 230 222 211 212 203 193 194 196 193 194 191 190 197 194 199 201 203 201 202 203 192 197 199 201 198 189 188 193 192 202 208 203 207 212 213 205
221 142 156 215 198 232 246 263 247 324 228 236 236 226 225 222 210 198 196 192 193 192 193 193 192 195 194 196 200 199 198 196 194 188 192 174 160 165 173 179 192 201 208 215 203 200 199 190 159
177 191 200 145 211 226 258 253 213 233 218 238 226 227 205 209 214 200 197 194 182 164 172 185 179 174 175 182 180 171 174 168 157 163 162 157 145 159 162 161 154 158 152 107 115 109 143 165 172
216 214 190 201 203 236 235 245 200 212 240 280 275 255 224 187 219 184 181 172 168 171 168 179 171 172 177 163 158 160 146 144 141 142 148 142 130 118 130 139 148 134 117 116 159 169 179 190 196